EDT,Max TemperatureF,Mean TemperatureF,Min TemperatureF,Max Dew PointF,MeanDew PointF,Min DewpointF,Max Humidity, Mean Humidity, Min Humidity, Max Sea Level PressureIn, Mean Sea Level PressureIn, Min Sea Level PressureIn, Max VisibilityMiles, Mean VisibilityMiles, Min VisibilityMiles, Max Wind SpeedMPH, Mean Wind SpeedMPH, Max Gust SpeedMPH,PrecipitationIn, CloudCover, Events, WindDirDegrees
2013-5-1,78,64,50,54,49,41,89,64,38,30.28,30.23,30.15,10,10,10,15,6,22,0.00,0,,125
2013-5-2,77,65,53,47,41,35,54,43,31,30.32,30.24,30.17,10,10,10,14,6,18,0.00,0,,128
2013-5-3,78,66,53,43,37,33,59,40,21,30.22,30.15,30.08,10,10,10,18,11,28,0.00,0,,120
2013-5-4,73,62,51,43,35,30,57,40,22,30.17,30.12,30.06,10,10,10,18,10,23,0.00,0,,115
2013-5-5,74,63,51,40,31,21,59,37,15,30.11,30.05,29.98,10,10,10,20,10,26,0.00,0,,107
2013-5-6,73,64,54,51,43,31,67,50,33,30.05,30.01,29.97,10,10,10,18,9,23,0.00,3,,106
2013-5-7,68,62,56,57,53,51,93,78,63,30.03,29.99,29.97,10,10,10,15,6,21,0.06,7,Rain,83
2013-5-8,73,65,57,55,50,46,86,62,38,29.99,29.95,29.92,10,10,8,14,3,18,0.04,5,Rain,44
2013-5-9,80,68,55,58,54,44,100,64,28,30.02,29.97,29.94,10,6,0,15,3,21,0.08,5,Fog-Rain,261
2013-5-10,74,67,59,64,59,55,100,82,64,29.98,29.87,29.80,10,7,2,18,5,30,0.78,6,Rain-Thunderstorm,184
2013-5-11,62,55,47,59,49,40,93,80,66,29.90,29.85,29.78,10,9,5,20,6,26,0.02,8,Rain,275
2013-5-12,52,45,37,40,31,26,85,62,39,30.12,30.00,29.93,10,10,10,20,8,28,0.00,5,,281
2013-5-13,54,42,30,32,28,24,92,62,32,30.20,30.16,30.11,10,10,10,17,5,24,0.00,2,,298
2013-5-14,67,50,33,42,35,29,89,62,34,30.20,30.05,29.86,10,10,10,16,6,22,0.00,2,,142
2013-5-15,86,70,53,59,53,41,80,57,34,29.86,29.79,29.75,10,10,10,20,7,36,0.17,1,,195
2013-5-16,78,67,56,63,55,43,97,63,29,29.99,29.88,29.81,10,8,1,8,2,10,0.28,3,Rain-Thunderstorm,329
2013-5-17,81,68,55,61,58,48,100,68,36,30.12,30.07,30.00,10,6,1,8,1,12,0.00,5,,150
2013-5-18,79,66,52,62,54,46,83,65,47,30.13,30.08,30.03,10,10,10,9,3,12,0.00,2,,138
2013-5-19,81,70,59,63,61,59,97,74,51,30.08,30.02,29.96,10,10,7,13,5,17,0.00,3,,126
2013-5-20,84,74,63,67,65,62,93,76,58,30.04,29.99,29.91,10,9,5,12,5,16,0.00,5,,168
2013-5-21,86,76,66,66,64,62,93,71,48,29.94,29.89,29.82,10,8,4,18,6,24,T,1,,176
2013-5-22,85,75,64,63,60,56,87,65,43,29.87,29.81,29.75,10,10,10,20,6,26,0.06,2,Rain,191
2013-5-23,76,60,44,63,55,40,93,71,49,30.02,29.85,29.78,10,9,4,22,9,30,0.02,7,Rain-Thunderstorm,266
2013-5-24,51,44,36,40,34,30,92,69,46,30.34,30.23,30.04,10,10,9,20,11,26,0.00,6,,334
2013-5-25,63,48,32,37,33,30,100,65,30,30.39,30.34,30.28,10,7,0,16,5,28,0.00,1,Fog,321
2013-5-26,69,52,35,39,34,28,89,57,24,30.34,30.30,30.25,10,9,1,12,3,17,0.00,0,,357
2013-5-27,65,54,42,49,43,37,89,67,44,30.29,30.22,30.08,10,10,10,12,3,15,0.03,3,Rain,122
2013-5-28,82,68,54,66,59,50,93,72,51,30.08,30.02,29.96,10,8,2,16,6,23,0.31,6,Rain-Thunderstorm,173
2013-5-29,86,76,66,62,59,56,81,59,37,30.09,30.05,30.00,10,10,10,15,6,23,0.00,1,,202
2013-5-30,88,75,62,63,62,59,93,67,40,30.18,30.12,30.07,10,10,7,14,5,21,0.00,1,,152
2013-5-31,88,75,62,65,62,60,93,67,40,30.11,30.05,29.97,10,9,4,20,6,30,0.12,1,Rain,175